Overview Statistics Trail Chart Weather Telemetry Raw packets
 

This is the latest recevied weather packets stored in our database for station/object W4SNA-3. If no packets are shown the sender has not sent any weather packets the latest 10 day(s).

<< 34 35 36 37 38 39 40 >>
Time Temp. Humidity Pressure Rain* Wind** Luminosity Snow
1788371537 31.67° C 58% 1021.8 hPa 0 mm - - -
1788371237 31.67° C 59% 1021.7 hPa 0 mm - - -
1788370937 32.22° C 61% 1021.8 hPa 0 mm - - -
1788370637 31.67° C 58% 1021.8 hPa 0 mm - - -
1788370338 32.22° C 61% 1021.9 hPa 0 mm - - -
1788370037 32.22° C 64% 1021.9 hPa 0 mm - - -
1788369740 32.22° C 63% 1022 hPa 0 mm - - -
1788369437 32.22° C 59% 1021.9 hPa 0 mm - - -
1788369137 31.67° C 63% 1022 hPa 0 mm - - -
1788368837 31.67° C 60% 1022.1 hPa 0 mm - - -
1788368537 32.22° C 60% 1022.2 hPa 0 mm - - -
1788368237 32.22° C 62% 1022.3 hPa 0 mm - - -
1788367937 32.22° C 59% 1022.2 hPa 0 mm - - -
1788367637 32.22° C 60% 1022.2 hPa 0 mm - - -
1788367339 31.67° C 58% 1022.3 hPa 0 mm - - -
1788367040 31.67° C 60% 1022.4 hPa 0 mm - - -
1788366744 32.22° C 60% 1022.3 hPa 0 mm - - -
1788366437 32.22° C 58% 1022.3 hPa 0 mm - - -
1788366139 32.22° C 60% 1022.6 hPa 0 mm - - -
1788365837 32.22° C 60% 1022.6 hPa 0 mm - - -
1788365537 31.67° C 60% 1022.6 hPa 0 mm - - -
1788365237 31.67° C 57% 1022.8 hPa 0 mm - - -
1788364940 31.67° C 64% 1022.8 hPa 0 mm - - -
1788364652 31.67° C 58% 1022.8 hPa 0 mm - - -
1788364340 31.11° C 63% 1022.7 hPa 0 mm - - -

* Rain latest hour (hover to see other rain measurements)
** Current wind speed in m/s (hover to see current wind gust speed)